This is the latest recevied weather packets stored in our database for station/object XE1E-15. If no packets are shown the sender has not sent any weather packets the latest 10 day(s).
| Time | Temp. | Humidity | Pressure | Rain* | Wind** | Luminosity | Snow |
|---|---|---|---|---|---|---|---|
| 1777703267 | 26.11° C | 41% | 1021.2 hPa | - | - | - | - |
| 1777702307 | 26.67° C | 41% | 1021.2 hPa | - | - | - | - |
| 1777701347 | 26.67° C | 41% | 1021.3 hPa | - | - | - | - |
| 1777700387 | 26.67° C | 41% | 1021.3 hPa | - | - | - | - |
| 1777699427 | 26.67° C | 41% | 1021.4 hPa | - | - | - | - |
| 1777698466 | 26.67° C | 41% | 1021.4 hPa | - | - | - | - |
| 1777697552 | 27.22° C | 40% | 1021.5 hPa | - | - | - | - |
| 1777697506 | 27.22° C | 40% | 1021.5 hPa | - | - | - | - |
| 1777696577 | 27.22° C | 40% | 1021.3 hPa | - | - | - | - |
| 1777696546 | 27.22° C | 40% | 1021.3 hPa | - | - | - | - |
| 1777695721 | 27.22° C | 38% | 1021.2 hPa | - | - | - | - |
| 1777695586 | 27.22° C | 38% | 1021.2 hPa | - | - | - | - |
| 1777694626 | 27.22° C | 42% | 1021 hPa | - | - | - | - |
| 1777693666 | 27.22° C | 42% | 1021 hPa | - | - | - | - |
| 1777692706 | 26.67° C | 43% | 1020.9 hPa | - | - | - | - |
| 1777691746 | 27.78° C | 40% | 1020.7 hPa | - | - | - | - |
| 1777690786 | 26.67° C | 45% | 1020.4 hPa | - | - | - | - |
| 1777689825 | 27.78° C | 37% | 1020.1 hPa | - | - | - | - |
| 1777688865 | 27.22° C | 40% | 1019.8 hPa | - | - | - | - |
| 1777687905 | 27.78° C | 37% | 1019.4 hPa | - | - | - | - |
| 1777686945 | 28.33° C | 37% | 1019.3 hPa | - | - | - | - |
| 1777685508 | 27.22° C | 35% | 1019.3 hPa | - | - | - | - |
| 1777684548 | 27.78° C | 37% | 1019 hPa | - | - | - | - |
| 1777683588 | 28.89° C | 33% | 1018.4 hPa | - | - | - | - |
| 1777682627 | 29.44° C | 35% | 1018.2 hPa | - | - | - | - |
* Rain since midnight (hover to see other rain measurements)
** Current wind speed in m/s (hover to see current wind gust speed)